TimeMST,TemperatureF,Dew PointF,Humidity,Sea Level PressureIn,VisibilityMPH,Wind Direction,Wind SpeedMPH,Gust SpeedMPH,PrecipitationIn,Events,Conditions,WindDirDegrees,DateUTC
12:53 AM,68.0,45.0,43,29.84,10.0,South,9.2,-,N/A,,Scattered Clouds,180,2012-11-09 07:53:00
1:53 AM,68.0,45.0,43,29.84,10.0,SSW,8.1,-,N/A,,Scattered Clouds,200,2012-11-09 08:53:00
2:53 AM,66.9,48.9,52,29.86,10.0,SW,8.1,-,0.00,Rain,Light Rain,220,2012-11-09 09:53:00
3:53 AM,64.0,54.0,70,29.86,10.0,Calm,Calm,-,0.01,Rain,Light Rain,0,2012-11-09 10:53:00
4:53 AM,60.1,55.0,83,29.85,10.0,East,11.5,-,0.01,,Partly Cloudy,80,2012-11-09 11:53:00
5:53 AM,60.1,55.0,83,29.86,10.0,East,5.8,-,0.00,Rain,Light Rain,90,2012-11-09 12:53:00
6:53 AM,61.0,54.0,78,29.86,10.0,Calm,Calm,-,0.00,,Overcast,0,2012-11-09 13:53:00
7:53 AM,64.0,54.0,70,29.86,10.0,Calm,Calm,-,N/A,,Scattered Clouds,0,2012-11-09 14:53:00
8:53 AM,66.0,52.0,60,29.86,10.0,South,5.8,-,N/A,,Scattered Clouds,170,2012-11-09 15:53:00
9:53 AM,72.0,48.9,44,29.84,10.0,South,16.1,21.9,N/A,,Clear,190,2012-11-09 16:53:00
10:53 AM,73.0,48.0,41,29.83,10.0,South,13.8,23.0,N/A,,Scattered Clouds,190,2012-11-09 17:53:00
11:53 AM,75.0,48.0,38,29.79,10.0,South,13.8,19.6,N/A,,Overcast,180,2012-11-09 18:53:00
12:53 PM,78.1,46.9,33,29.74,10.0,SSW,17.3,28.8,N/A,,Overcast,210,2012-11-09 19:53:00
1:53 PM,77.0,46.9,34,29.71,10.0,SW,17.3,25.3,N/A,,Mostly Cloudy,230,2012-11-09 20:53:00
2:53 PM,77.0,48.0,36,29.71,10.0,SW,20.7,35.7,N/A,,Scattered Clouds,230,2012-11-09 21:53:00
3:53 PM,75.9,46.9,36,29.70,10.0,SW,21.9,32.2,N/A,,Scattered Clouds,230,2012-11-09 22:53:00
4:53 PM,73.9,46.9,38,29.71,10.0,SW,17.3,27.6,N/A,,Partly Cloudy,230,2012-11-09 23:53:00
5:53 PM,71.1,46.9,42,29.72,10.0,WSW,12.7,-,N/A,,Clear,250,2012-11-10 00:53:00
6:53 PM,68.0,46.9,47,29.75,10.0,West,9.2,-,N/A,,Scattered Clouds,260,2012-11-10 01:53:00
7:53 PM,66.0,46.9,50,29.76,10.0,West,6.9,-,N/A,,Partly Cloudy,260,2012-11-10 02:53:00
8:53 PM,64.0,46.0,52,29.77,10.0,WNW,9.2,-,N/A,,Partly Cloudy,290,2012-11-10 03:53:00
9:53 PM,63.0,46.9,56,29.78,10.0,West,11.5,-,N/A,,Overcast,270,2012-11-10 04:53:00
10:53 PM,62.1,48.0,60,29.78,10.0,West,9.2,-,N/A,,Overcast,260,2012-11-10 05:53:00
11:53 PM,62.1,48.0,60,29.78,10.0,South,8.1,-,N/A,,Scattered Clouds,190,2012-11-10 06:53:00